{"data":{"norad_id":67709,"epoch":"2026-09-19T14:38:43.479744Z","epoch_age_seconds":145711,"freshness":"FRESH","line1":"1 67709U 26025S   26262.61022546  .00015218  00000+0  47298-3 0  9997","line2":"2 67709  97.2850  12.5899 0001310  94.4051 265.7342 15.33430293 35734","mean_motion":15.33430293,"eccentricity":0.000131,"inclination_deg":97.285,"raan_deg":12.5899,"arg_perigee_deg":94.4051,"mean_anomaly_deg":265.7342,"bstar":0.00047298,"rev_number":3573,"period_min":93.907105303286,"perigee_km":464.69040467745,"apogee_km":466.48346034777,"semimajor_km":6843.7239325126,"source":"CELESTRAK","updated_at":"2026-09-20T09:00:43.654264Z"}}